sat.trackr.live / text

‹ back to catalog

STARLINK-4446

NORAD 53505 · 2022-099AS

PAYLOAD ACTIVE UNKNOWN

§ Identity

Operator
Country
US
Launch date
2022-08-12
Launch site
AFWTR
Launch vehicle
Mass (kg)
RCS (m²)

Purposes: comms

External: N2YO · Heavens-Above · Gunter

§ Orbital elements

Epoch: 2026-09-19T13:24:49.798080Z

Period
89.50 min
Inclination
97.6020°
Eccentricity
0.0006424
Mean motion
16.08914039 rev/d
Perigee alt
245.6 km
Apogee alt
254.1 km
Semi-major
6,628.0 km
B*
4.9925e-4
RAAN
44.7113°
Arg perigee
252.9679°
Mean anomaly
107.0900°
Rev number
22,664

§ Raw data

STARLINK-44461 53505U 22099AS  26262.55890970  .00432425  94306-4  49925-3 0  99992 53505  97.6020  44.7113 0006424 252.9679 107.0900 16.08914039226648

JSON: /api/v1/satellites/53505 · /tle

For live sub-satellite position, see the globe view (requires WebGL).

§ Visibility from observer

Set your observer location to see the next 7 days of passes ≥ 10°. The values pass through the URL so the page stays shareable.

No JS? Fill the form by hand. The geolocation button needs JavaScript.